Location: Ballingbuur
(53.0000°N, 5.7667°E)
Time: 21:28:34
(UTC+00:00)

CZ-4B R/B - Pass Details

Date: 29 November 2020
Orbit: 809 x 881 km, 99.1° (Epoch: 24 January)

Event Time Altitude Azimuth Distance (km) Brightness Sun altitude
Rises 06:38:55 0° 14° (NNE) 3,352 6.2 -6.7°
Reaches altitude 10° 06:41:15 10° 12° (NNE) 2,422 5.4 -6.4°
Maximum altitude 06:46:34 68° 291° (WNW) 889 3.2 -5.7°
Drops below altitude 10° 06:51:55 10° 210° (SSW) 2,443 5.6 -5.0°
Sets 06:54:18 0° 207° (SSW) 3,384 6.4 -4.7°
